When you browse on this site, cookies collect data to enhance your experience and personalize the content and advertising you see.
Visit our Privacy Policy to learn more. By continuing to use the site, you agree to this use of cookies and data.

Hourly Weather Tuxtla Gutiérrez

Today, 13 August, Thursday

Time Temperature Precipitation Wind Pressure Humidity
00:00 +23°C° 0 mm 1 mps 710 mmHg 97%
01:00 +23°C° 0 mm 1 mps 710 mmHg 97%
02:00 +23°C° 0 mm 1 mps 709 mmHg 96%
03:00 +23°C° 0 mm 1 mps 709 mmHg 96%
04:00 +23°C° 0 mm 1 mps 709 mmHg 96%
05:00 +22°C° 0 mm 1 mps 709 mmHg 96%
06:00 +22°C° 0 mm 1 mps 709 mmHg 96%
07:00 +24°C° 0 mm 1 mps 710 mmHg 93%
08:00 +25°C° 0 mm 1 mps 710 mmHg 89%
09:00 +27°C° 0 mm 1 mps 710 mmHg 85%
10:00 +28°C° 0 mm 1 mps 710 mmHg 79%
11:00 +30°C° 0 mm 1 mps 710 mmHg 72%
12:00 +31°C° 0 mm 1 mps 710 mmHg 65%
13:00 +31°C° 0.2 mm 2 mps 709 mmHg 68%
14:00 +31°C° 0.2 mm 2 mps 709 mmHg 71%
15:00 +30°C° 0.2 mm 2 mps 708 mmHg 74%
16:00 +29°C° 0.8 mm 2 mps 708 mmHg 80%
17:00 +28°C° 0.8 mm 2 mps 708 mmHg 85%
18:00 +26°C° 0.8 mm 3 mps 708 mmHg 91%
19:00 +25°C° 0.2 mm 2 mps 708 mmHg 93%
20:00 +24°C° 0.2 mm 2 mps 709 mmHg 94%
21:00 +23°C° 0.2 mm 1 mps 709 mmHg 95%
22:00 +23°C° 0 mm 1 mps 709 mmHg 95%
23:00 +23°C° 0 mm 1 mps 709 mmHg 95%

Tomorrow, 14 August, Friday

Time Temperature Precipitation Wind Pressure Humidity
00:00 +23°C° 0 mm 1 mps 710 mmHg 96%
01:00 +22°C° 0 mm 1 mps 709 mmHg 96%
02:00 +22°C° 0 mm 1 mps 709 mmHg 96%
03:00 +22°C° 0 mm 1 mps 708 mmHg 96%
04:00 +22°C° 0 mm 1 mps 708 mmHg 96%
05:00 +22°C° 0 mm 1 mps 708 mmHg 96%
06:00 +22°C° 0 mm 1 mps 708 mmHg 96%
07:00 +24°C° 0 mm 1 mps 709 mmHg 91%
08:00 +25°C° 0 mm 1 mps 709 mmHg 87%
09:00 +27°C° 0 mm 1 mps 710 mmHg 82%
10:00 +28°C° 0 mm 1 mps 710 mmHg 78%
11:00 +30°C° 0 mm 1 mps 710 mmHg 74%
12:00 +31°C° 0 mm 1 mps 710 mmHg 69%
13:00 +31°C° 0.3 mm 1 mps 709 mmHg 72%
14:00 +30°C° 0.3 mm 2 mps 709 mmHg 75%
15:00 +30°C° 0.3 mm 2 mps 708 mmHg 78%
16:00 +29°C° 1.4 mm 2 mps 708 mmHg 83%
17:00 +27°C° 1.4 mm 2 mps 708 mmHg 88%
18:00 +26°C° 1.4 mm 2 mps 708 mmHg 94%
19:00 +25°C° 0.8 mm 2 mps 708 mmHg 95%
20:00 +25°C° 0.8 mm 2 mps 709 mmHg 96%
21:00 +24°C° 0.8 mm 2 mps 709 mmHg 97%
22:00 +24°C° 0 mm 1 mps 709 mmHg 97%
23:00 +23°C° 0 mm 1 mps 709 mmHg 97%

Day after tomorrow, 15 August, Saturday

Time Temperature Precipitation Wind Pressure Humidity
00:00 +23°C° 0 mm 1 mps 709 mmHg 97%
01:00 +23°C° 0 mm 1 mps 709 mmHg 97%
02:00 +23°C° 0 mm 1 mps 709 mmHg 97%
03:00 +23°C° 0 mm 1 mps 708 mmHg 97%
04:00 +23°C° 0 mm 1 mps 708 mmHg 97%
05:00 +22°C° 0 mm 1 mps 708 mmHg 96%
06:00 +22°C° 0 mm 1 mps 708 mmHg 96%
07:00 +24°C° 0 mm 1 mps 709 mmHg 92%
08:00 +25°C° 0 mm 1 mps 709 mmHg 88%
09:00 +27°C° 0 mm 1 mps 710 mmHg 84%
10:00 +28°C° 0 mm 1 mps 710 mmHg 80%
11:00 +30°C° 0 mm 1 mps 710 mmHg 75%
12:00 +31°C° 0 mm 1 mps 710 mmHg 70%
13:00 +31°C° 0.5 mm 1 mps 709 mmHg 73%
14:00 +30°C° 0.5 mm 2 mps 708 mmHg 76%
15:00 +30°C° 0.5 mm 2 mps 708 mmHg 79%
16:00 +29°C° 0.5 mm 2 mps 708 mmHg 83%
17:00 +28°C° 0.5 mm 2 mps 708 mmHg 88%
18:00 +27°C° 0.5 mm 2 mps 708 mmHg 92%
19:00 +26°C° 0.2 mm 2 mps 708 mmHg 94%
20:00 +25°C° 0.2 mm 2 mps 709 mmHg 95%
21:00 +24°C° 0.2 mm 1 mps 709 mmHg 96%
22:00 +24°C° 0 mm 1 mps 709 mmHg 96%
23:00 +24°C° 0 mm 1 mps 709 mmHg 96%

16 August, Sunday

Time Temperature Precipitation Wind Pressure Humidity
00:00 +24°C° 0 mm 1 mps 709 mmHg 95%
01:00 +23°C° 0 mm 1 mps 709 mmHg 95%
02:00 +23°C° 0 mm 1 mps 709 mmHg 95%
03:00 +23°C° 0 mm 1 mps 708 mmHg 96%
04:00 +22°C° 0 mm 1 mps 708 mmHg 95%
05:00 +22°C° 0 mm 1 mps 709 mmHg 94%
06:00 +22°C° 0 mm 1 mps 709 mmHg 93%
07:00 +22°C° 0 mm 0 mps 709 mmHg 90%
08:00 +23°C° 0 mm 0 mps 710 mmHg 86%
09:00 +25°C° 0 mm 0 mps 710 mmHg 82%
10:00 +28°C° 0 mm 1 mps 710 mmHg 76%
11:00 +29°C° 0 mm 1 mps 710 mmHg 70%
12:00 +31°C° 0 mm 1 mps 710 mmHg 64%
13:00 +31°C° 0.1 mm 2 mps 709 mmHg 66%
14:00 +31°C° 0.1 mm 2 mps 709 mmHg 68%
15:00 +30°C° 0.1 mm 2 mps 708 mmHg 71%
16:00 +29°C° 0.6 mm 2 mps 708 mmHg 78%
17:00 +28°C° 0.6 mm 2 mps 708 mmHg 85%
18:00 +26°C° 0.6 mm 2 mps 708 mmHg 93%
19:00 +25°C° 0.9 mm 2 mps 709 mmHg 94%
20:00 +24°C° 0.9 mm 2 mps 709 mmHg 95%
21:00 +23°C° 0.9 mm 1 mps 709 mmHg 96%
22:00 +23°C° 0.2 mm 1 mps 710 mmHg 96%
23:00 +23°C° 0.2 mm 1 mps 710 mmHg 96%

17 August, Monday

Time Temperature Precipitation Wind Pressure Humidity
00:00 +23°C° 0.2 mm 1 mps 710 mmHg 96%
01:00 +23°C° 0.2 mm 1 mps 710 mmHg 96%
02:00 +23°C° 0.2 mm 1 mps 709 mmHg 96%
03:00 +21°C° 0.2 mm 0 mps 709 mmHg 95%
04:00 +21°C° 0 mm 0 mps 709 mmHg 96%
05:00 +20°C° 0 mm 0 mps 709 mmHg 96%
06:00 +20°C° 0 mm 0 mps 709 mmHg 96%
07:00 +22°C° 0 mm 0 mps 710 mmHg 92%
08:00 +25°C° 0 mm 1 mps 711 mmHg 89%
09:00 +27°C° 0 mm 1 mps 711 mmHg 85%
10:00 +28°C° 0.1 mm 1 mps 711 mmHg 83%
11:00 +28°C° 0.1 mm 1 mps 711 mmHg 80%
12:00 +29°C° 0.1 mm 1 mps 711 mmHg 77%
13:00 +29°C° 1.8 mm 1 mps 710 mmHg 81%
14:00 +29°C° 1.8 mm 1 mps 710 mmHg 85%
15:00 +28°C° 1.8 mm 1 mps 709 mmHg 90%
16:00 +27°C° 2.3 mm 1 mps 709 mmHg 91%
17:00 +26°C° 2.3 mm 1 mps 709 mmHg 93%
18:00 +25°C° 2.3 mm 1 mps 709 mmHg 95%
19:00 +25°C° 1.7 mm 1 mps 710 mmHg 96%
20:00 +24°C° 1.7 mm 1 mps 710 mmHg 96%
21:00 +24°C° 1.7 mm 1 mps 710 mmHg 96%
22:00 +23°C° 0.5 mm 1 mps 710 mmHg 96%
23:00 +23°C° 0.5 mm 1 mps 710 mmHg 97%

18 August, Tuesday

Time Temperature Precipitation Wind Pressure Humidity
00:00 +23°C° 0.5 mm 1 mps 710 mmHg 97%
01:00 +23°C° 0.4 mm 1 mps 710 mmHg 97%
02:00 +23°C° 0.4 mm 1 mps 710 mmHg 97%
03:00 +23°C° 0.4 mm 1 mps 710 mmHg 97%
04:00 +23°C° 0.6 mm 1 mps 710 mmHg 97%
05:00 +21°C° 0.6 mm 0 mps 710 mmHg 97%
06:00 +21°C° 0.6 mm 0 mps 710 mmHg 97%
07:00 +21°C° 0.1 mm 0 mps 710 mmHg 96%
08:00 +22°C° 0.1 mm 0 mps 710 mmHg 96%
09:00 +22°C° 0.1 mm 0 mps 710 mmHg 96%
10:00 +23°C° 0 mm 0 mps 710 mmHg 89%
11:00 +27°C° 0 mm 1 mps 710 mmHg 83%
12:00 +29°C° 0 mm 1 mps 710 mmHg 77%
13:00 +29°C° 0.2 mm 2 mps 710 mmHg 77%
14:00 +29°C° 0.2 mm 2 mps 709 mmHg 76%
15:00 +30°C° 0.2 mm 2 mps 709 mmHg 75%
16:00 +28°C° 1 mm 2 mps 709 mmHg 81%
17:00 +27°C° 1 mm 2 mps 709 mmHg 88%
18:00 +26°C° 1 mm 2 mps 708 mmHg 94%
19:00 +25°C° 1.9 mm 2 mps 709 mmHg 95%
20:00 +25°C° 1.9 mm 1 mps 709 mmHg 96%
21:00 +24°C° 1.9 mm 1 mps 710 mmHg 96%
22:00 +24°C° 1.6 mm 1 mps 710 mmHg 97%
23:00 +24°C° 1.6 mm 1 mps 710 mmHg 97%
Show more